Погода в Владикавказе

Погода в Владикавказе : погода сейчас, прогноз погоды и архив. Всё, что Вы хотите узнать о погоде в Владикавказе!

Поиск расширенной информации на нашем сайте:

Другие новости

Новости СМИ2

Главная страница сайта

Новости сайта

03.07.2017

Напоминаем, что на нашем специализированном сайте Метеоцентр.Азия вы можете получить высокодетализированные автоматические прогнозы погоды по пунктам России, СНГ и мира в авиационном формате (включающие направление и скорость ветра, видимость, явления погоды, количество и форму облачности, нижнюю и верхнюю границу облачности).

Рекомендуем: Интернет магазин вышивки и вязания пряжа http://www.kudel.ru.

Погода в Владикавказе - сегодня

Время (UTC), дата Ветер
(°,м/с) 
Видим.   Явления Облачность Т
(°С)
Тd
(°С)
f(%) Тe
(°С)
Pmin
(гПа)
dP
(гПа)
Po
(мм)
O2
(г/м3)
Тmin Tmax R s Состояние
почвы
06 19.09.17 тихо ()   20000 м    ясно 
+26.2 +8.2 32 +26  1012.5  0.8  702  256           
09 19.09.17 040 (СВ) 20000 м    3/3 600 м 
[Cu hum]
+29.9 +11.8 33 +35  1010.7  -0.7  701  252           
12 19.09.17 070 (В) 20000 м    3/3 600 м 
[Cu Sc]
+30.8 +10.4 28 +34  1009.9  -0.6  701  252           
15 19.09.17 310 (СЗ) 20000 м    4/4 600 м 
[Sc]
+27.9 +10.1 33 +31  1011.4  0.6  701  254    +31.1       
18 19.09.17 160 (Ю) 10 км    ясно 
+20.6 +13.8 65 +29  1014.2  0.9  702  260           
21 19.09.17 170 (Ю) 10 км    ясно 
+20.3 +11.8 58 +25  1013.6  -0.7  701  261           
00 20.09.17 170 (Ю) 10 км    ясно 
+18.9 +10.9 60 +24  1013.8  -0.2  701  262           
03 20.09.17 160 (Ю) 20000 м    ясно 
+17.7 +9.5 59 +21  1014.9  0.7  702  264  +17.6        сухая 
06 20.09.17 160 (Ю) 20000 м    ясно 
+24.8 +10.5 41 +28  1013.7  0.7  702  257           
09 20.09.17 070 (В) 20000 м    ясно 
+29.6 +9.7 29 +32  1011.2  -1.2  701  253           
12 20.09.17 070 (В) 20000 м    ясно 
+31 +7.3 23 +31  1010.4  -0.4  701  252           
15 20.09.17 120 (ЮВ) 20000 м    ясно 
+26.5 +8.7 32 +27  1012.1  0.4  701  256    +31.2       
18 20.09.17 160 (Ю) 10 км    ясно 
+20.2 +10.9 55 +24  1014.1  0.3  702  261           
21 20.09.17 190 (Ю) 10 км    ясно 
+19.8 +10.2 54 +24  1013.8  -0.4  701  262           
00 21.09.17 160 (Ю) 10 км    ясно 
+18.6 +10.1 58 +23  1013.6  -0.5  701  262           
03 21.09.17 170 (Ю) 20000 м    ясно 
+17 +9.8 63 +20  1014.3  0.3  701  264  +17        сухая 
06 21.09.17 180 (Ю) 20000 м    ясно 
+25 +9.6 38 +27  1011.7  -0.4  701  257  +16.7         
09 21.09.17 040 (СВ) 20000 м    1/1 600 м 
[Cu med, cong]
+29.4 +8.9 28 +30  1009.6  -0.9  700  253           
12 21.09.17 020 (С) 20000 м    3/3 600 м 
[Sc]
+30.2 +10.5 30 +33  1008  -1.3  699  252           
15 21.09.17 190 (Ю) 20000 м    5/5 600 м 
[Cu Sc]
+24.9 +13.7 50 +33  1009.1  0.1  699  255    +30.3       
18 21.09.17 170 (Ю) 10 км    ясно 
+20.5 +13.2 63 +28  1010.7  0.3  699  259           
21 21.09.17 160 (Ю) 10 км    ясно 
+18.2 +12.3 68 +26  1010.8  -0.6  699  262           
00 22.09.17 160 (Ю) 10 км    ясно 
+16.5 +11.8 74 +23  1010.5  -0.7  698  263           
03 22.09.17 тихо ()   20000 м    3/0 средняя 
[Ac trans]
+14.6 +11.4 81 +19  1011.1  0.1  698  265  +14.6        сухая 
06 22.09.17 310 (СЗ) 20000 м    5/3 600 м средняя 
[Cu med, cong|Ac cast]
+22.1 +13.2 57 +30  1008.9  0.1  698  258           
Время (UTC), дата Ветер
(°,м/с) 
Видим.   Явления Облачность Т
(°С)
Тd
(°С)
f(%) Тe
(°С)
Pmin
(гПа)
dP
(гПа)
Po
(мм)
O2
(г/м3)
Тmin Tmax R s Состояние
почвы

Для получения пояснительной информации подведите курсор к названию столбца.

ПОГОДА в Владикавказе - архив

Всё, что Вы хотите узнать о погоде в Владикавказе - удобно и подробно!

Выберите нужную дату (начиная с 1 января 2015* года) и нажмите кнопку "Найти".
Будут отображены архивные сводки погоды по пункту Владикавказ, начиная с указанной даты.


Отображать данные в формате CSV (для использования в таблицах Excel)


Внимание! Наш архив погоды предназначен исключительно для личного некоммерческого использования в познавательных целях. Если Вам необходимы официальные справки о состоянии погоды (для производственных, юридических, коммерческих и т.п. целей), обращайтесь в органы Росгидромета.

*Примечание: данная дата относится к архиву по метеостанциям СССР (Россия, СНГ, Балтия).
Архив по метеостанциям Зарубежной Европы и Азии (кроме Китая) хранится 10 дней, по другим регионам земного шара (Китай, Африка, Америка, Австралия, Океания) - 1 день.

Владикавказ - район местоположения метеостанции


Название, широта, долгота, высота метеостанции:
Владикавказ 43.1°ш. 44.6°д. 703 м над ур. моря [Российская Федерация]

Дополнительная информация

В oтличие oт бoльшинства пoгoдных сайтoв мы публикуем пoдрoбную метеoинфoрмацию в детальнoм прoфессиoнальнoм фoрмате.

Характеристики температуры и влажнoсти вoздуха измеряются на высoте 2 м в тени вдали oт зданий и деревьев.
Скoрoсть ветра измеряется на высoте 10 м (на урoвне рoста челoвека скoрoсть ветра ниже в 1.5-2 раза). Если метеoстанция нахoдится в гoрoде или в лесу, тo скoрoсть ветра занижена на 2-4 м/с пo сравнению с oткрытым местoм. Скoрoсть ветра над акватoриями крупных рек и oзёр, а также на вершинах хoлмoв на 2-5 м/с выше, чем в oбычных услoвиях.
Атмoсфернoе давление в разных тoчках местнoсти мoжет значительнo oтличаться oт давления на метеoстанции, в зависимoсти oт услoвий рельефа (при пoдъёме на 10 м давление пoнижается примернo на 1 мм рт.ст.).